• In Spain
  • List of Countries
  • For 7 days
  • Water Temperature
  • Satellite Maps
  • Weather Map
  • Weather Widgets
  • user-avatar
    Login

    Hourly Weather Haskovo

    Today, 25 September, Tuesday

    Time Temperature Precipitation Wind Pressure Humidity
    00:00 +16°C° 0 mm 6 mps 744 mmHg 48%
    01:00 +16°C° 0 mm 6 mps 744 mmHg 48%
    02:00 +15°C° 0 mm 6 mps 745 mmHg 47%
    03:00 +15°C° 0 mm 5 mps 745 mmHg 47%
    04:00 +14°C° 0 mm 5 mps 746 mmHg 46%
    05:00 +14°C° 0 mm 5 mps 746 mmHg 46%
    06:00 +14°C° 0 mm 5 mps 747 mmHg 45%
    07:00 +14°C° 0 mm 5 mps 747 mmHg 43%
    08:00 +13°C° 0 mm 5 mps 748 mmHg 42%
    09:00 +15°C° 0 mm 5 mps 748 mmHg 37%
    10:00 +16°C° 0 mm 5 mps 748 mmHg 31%
    11:00 +17°C° 0 mm 5 mps 748 mmHg 26%
    12:00 +19°C° 0 mm 6 mps 748 mmHg 24%
    13:00 +20°C° 0 mm 6 mps 748 mmHg 21%
    14:00 +21°C° 0 mm 6 mps 748 mmHg 19%
    15:00 +20°C° 0 mm 6 mps 748 mmHg 20%
    16:00 +19°C° 0 mm 6 mps 748 mmHg 20%
    17:00 +19°C° 0 mm 6 mps 748 mmHg 21%
    18:00 +16°C° 0 mm 5 mps 748 mmHg 24%
    19:00 +15°C° 0 mm 4 mps 749 mmHg 28%
    20:00 +13°C° 0 mm 3 mps 750 mmHg 31%
    21:00 +12°C° 0 mm 3 mps 750 mmHg 36%
    22:00 +11°C° 0 mm 3 mps 751 mmHg 40%
    23:00 +11°C° 0 mm 3 mps 751 mmHg 44%

    Tomorrow, 26 September, Wednesday

    Time Temperature Precipitation Wind Pressure Humidity
    00:00 +10°C° 0 mm 3 mps 751 mmHg 45%
    01:00 +10°C° 0 mm 3 mps 751 mmHg 45%
    02:00 +10°C° 0 mm 3 mps 752 mmHg 45%
    03:00 +9°C° 0 mm 3 mps 752 mmHg 46%
    04:00 +9°C° 0 mm 3 mps 752 mmHg 47%
    05:00 +8°C° 0 mm 3 mps 752 mmHg 48%
    06:00 +8°C° 0 mm 4 mps 752 mmHg 46%
    07:00 +10°C° 0 mm 4 mps 753 mmHg 45%
    08:00 +10°C° 0 mm 5 mps 753 mmHg 43%
    09:00 +12°C° 0 mm 5 mps 753 mmHg 39%
    10:00 +14°C° 0 mm 6 mps 753 mmHg 35%
    11:00 +15°C° 0 mm 7 mps 753 mmHg 32%
    12:00 +16°C° 0 mm 7 mps 753 mmHg 30%
    13:00 +16°C° 0 mm 7 mps 752 mmHg 29%
    14:00 +17°C° 0 mm 7 mps 752 mmHg 28%
    15:00 +16°C° 0 mm 7 mps 752 mmHg 29%
    16:00 +16°C° 0 mm 7 mps 751 mmHg 30%
    17:00 +15°C° 0 mm 7 mps 751 mmHg 31%
    18:00 +14°C° 0 mm 6 mps 752 mmHg 34%
    19:00 +12°C° 0 mm 5 mps 752 mmHg 38%
    20:00 +10°C° 0 mm 5 mps 752 mmHg 41%
    21:00 +9°C° 0 mm 5 mps 753 mmHg 43%
    22:00 +9°C° 0 mm 5 mps 753 mmHg 44%
    23:00 +8°C° 0 mm 4 mps 753 mmHg 46%

    Day after tomorrow, 27 September, Thursday

    Time Temperature Precipitation Wind Pressure Humidity
    00:00 +8°C° 0 mm 4 mps 753 mmHg 47%
    01:00 +7°C° 0 mm 4 mps 752 mmHg 49%
    02:00 +7°C° 0 mm 4 mps 752 mmHg 50%
    03:00 +6°C° 0 mm 4 mps 752 mmHg 51%
    04:00 +6°C° 0 mm 4 mps 752 mmHg 52%
    05:00 +6°C° 0 mm 4 mps 751 mmHg 53%
    06:00 +6°C° 0 mm 5 mps 751 mmHg 49%
    07:00 +7°C° 0 mm 5 mps 751 mmHg 46%
    08:00 +8°C° 0 mm 6 mps 751 mmHg 42%
    09:00 +10°C° 0 mm 7 mps 751 mmHg 37%
    10:00 +12°C° 0 mm 7 mps 750 mmHg 32%
    11:00 +15°C° 0 mm 8 mps 750 mmHg 27%
    12:00 +16°C° 0 mm 8 mps 750 mmHg 26%
    13:00 +17°C° 0 mm 8 mps 749 mmHg 25%
    14:00 +18°C° 0 mm 8 mps 748 mmHg 24%
    15:00 +17°C° 0 mm 8 mps 748 mmHg 25%
    16:00 +17°C° 0 mm 8 mps 747 mmHg 26%
    17:00 +16°C° 0 mm 7 mps 747 mmHg 27%
    18:00 +15°C° 0 mm 6 mps 747 mmHg 30%
    19:00 +13°C° 0 mm 5 mps 747 mmHg 34%
    20:00 +12°C° 0 mm 4 mps 747 mmHg 37%
    21:00 +11°C° 0 mm 4 mps 747 mmHg 38%
    22:00 +11°C° 0 mm 4 mps 747 mmHg 40%
    23:00 +10°C° 0 mm 4 mps 747 mmHg 41%

    28 September, Friday

    Time Temperature Precipitation Wind Pressure Humidity
    00:00 +10°C° 0 mm 4 mps 746 mmHg 41%
    01:00 +8°C° 0 mm 4 mps 746 mmHg 41%
    02:00 +8°C° 0 mm 4 mps 746 mmHg 41%
    03:00 +8°C° 0 mm 4 mps 746 mmHg 40%
    04:00 +8°C° 0 mm 4 mps 745 mmHg 39%
    05:00 +8°C° 0 mm 4 mps 745 mmHg 38%
    06:00 +10°C° 0 mm 4 mps 745 mmHg 36%
    07:00 +11°C° 0 mm 4 mps 745 mmHg 34%
    08:00 +12°C° 0 mm 4 mps 745 mmHg 33%
    09:00 +14°C° 0 mm 4 mps 745 mmHg 33%
    10:00 +15°C° 0 mm 4 mps 745 mmHg 33%
    11:00 +18°C° 0 mm 4 mps 745 mmHg 33%
    12:00 +19°C° 0.1 mm 4 mps 744 mmHg 33%
    13:00 +19°C° 0.1 mm 4 mps 744 mmHg 32%
    14:00 +20°C° 0.1 mm 4 mps 744 mmHg 32%
    15:00 +20°C° 0.2 mm 3 mps 743 mmHg 34%
    16:00 +20°C° 0.2 mm 3 mps 743 mmHg 35%
    17:00 +20°C° 0.2 mm 2 mps 743 mmHg 37%
    18:00 +18°C° 0 mm 2 mps 743 mmHg 42%
    19:00 +17°C° 0 mm 2 mps 743 mmHg 46%
    20:00 +15°C° 0 mm 2 mps 743 mmHg 51%
    21:00 +15°C° 0 mm 2 mps 743 mmHg 53%
    22:00 +14°C° 0 mm 2 mps 743 mmHg 56%
    23:00 +14°C° 0 mm 2 mps 743 mmHg 58%

    29 September, Saturday

    Time Temperature Precipitation Wind Pressure Humidity
    00:00 +13°C° 0 mm 2 mps 742 mmHg 58%
    01:00 +13°C° 0 mm 2 mps 742 mmHg 58%
    02:00 +13°C° 0 mm 2 mps 742 mmHg 58%
    03:00 +12°C° 0 mm 2 mps 742 mmHg 57%
    04:00 +12°C° 0 mm 2 mps 742 mmHg 56%
    05:00 +12°C° 0 mm 2 mps 742 mmHg 55%
    06:00 +13°C° 0 mm 2 mps 742 mmHg 51%
    07:00 +14°C° 0 mm 2 mps 742 mmHg 47%
    08:00 +15°C° 0 mm 2 mps 742 mmHg 43%
    09:00 +17°C° 0 mm 2 mps 742 mmHg 40%
    10:00 +19°C° 0 mm 2 mps 742 mmHg 38%
    11:00 +21°C° 0 mm 3 mps 742 mmHg 35%
    12:00 +22°C° 0 mm 3 mps 741 mmHg 34%
    13:00 +24°C° 0 mm 2 mps 741 mmHg 32%
    14:00 +25°C° 0 mm 2 mps 741 mmHg 31%
    15:00 +25°C° 0 mm 2 mps 741 mmHg 32%
    16:00 +24°C° 0 mm 2 mps 741 mmHg 33%
    17:00 +24°C° 0 mm 2 mps 741 mmHg 34%
    18:00 +21°C° 0 mm 2 mps 741 mmHg 39%
    19:00 +20°C° 0 mm 1 mps 741 mmHg 43%
    20:00 +19°C° 0 mm 1 mps 741 mmHg 48%
    21:00 +18°C° 0 mm 1 mps 742 mmHg 50%
    22:00 +18°C° 0 mm 1 mps 742 mmHg 51%
    23:00 +16°C° 0 mm 1 mps 742 mmHg 53%

    30 September, Sunday

    Time Temperature Precipitation Wind Pressure Humidity
    00:00 +16°C° 0 mm 1 mps 742 mmHg 54%
    01:00 +15°C° 0 mm 1 mps 742 mmHg 55%
    02:00 +15°C° 0 mm 1 mps 742 mmHg 56%
    03:00 +15°C° 0 mm 1 mps 743 mmHg 57%
    04:00 +15°C° 0 mm 1 mps 743 mmHg 57%
    05:00 +14°C° 0 mm 1 mps 743 mmHg 58%
    06:00 +16°C° 0 mm 1 mps 743 mmHg 54%
    07:00 +18°C° 0 mm 1 mps 743 mmHg 50%
    08:00 +19°C° 0 mm 1 mps 744 mmHg 47%
    09:00 +21°C° 0 mm 1 mps 744 mmHg 42%
    10:00 +23°C° 0 mm 2 mps 744 mmHg 37%
    11:00 +24°C° 0 mm 2 mps 744 mmHg 33%
    12:00 +25°C° 0 mm 2 mps 744 mmHg 31%
    13:00 +26°C° 0 mm 2 mps 743 mmHg 30%
    14:00 +27°C° 0 mm 1 mps 743 mmHg 28%
    15:00 +26°C° 0 mm 1 mps 743 mmHg 30%
    16:00 +26°C° 0 mm 1 mps 743 mmHg 31%
    17:00 +25°C° 0 mm 1 mps 743 mmHg 32%
    18:00 +24°C° 0 mm 1 mps 743 mmHg 36%
    19:00 +22°C° 0 mm 1 mps 743 mmHg 40%
    20:00 +19°C° 0 mm 2 mps 743 mmHg 44%
    21:00 +19°C° 0 mm 1 mps 743 mmHg 48%
    22:00 +19°C° 0 mm 1 mps 743 mmHg 52%
    23:00 +18°C° 0 mm 1 mps 743 mmHg 56%
    Show more